User: anonymous   Login
Location: Ashtead
(51.3000°N, 0.3000°W)
Time: 16:48:49
(UTC+00:00)
Language:

Cosmos 1417 Rocket - Orbit

View from above orbital plane
View from above orbital plane
View from above satellite
View from above satellite

Ground track
Ground track

The orbit data is extracted from the following two-line orbital elements,

1 13618U 82102B   24061.67427780  .00000115  00000-0  10058-3 0  9990
2 13618  82.9670 125.9094 0033320 114.1900 356.4189 13.76893975 78100
Epoch (UTC): 01 March 2024 16:10:57
Eccentricity: 0.0033320
inclination: 82.9670°
perigee height: 950 km
apogee height: 999 km
right ascension of ascending node: 125.9094°
argument of perigee: 114.1900°
revolutions per day: 13.76893975
mean anomaly at epoch: 356.4189°
orbit number at epoch: 7810

The dashed part of the orbit path shows where the satellite is in the earth's shadow,  

DLR